BMCB-37 Weather Reports


time (UTC)temp
C
wind
direction
speed
KPH
gust
KPH
rain 1hr
cm
rain 24hr
cm
rain mn
cm
humidity
%
barometer
mb
20260505222037 10 0 0.0 0.0 0.15 1.65 0.08 10 1011.5
20260505220036 10 0 0.0 0.0 0.15 1.60 0.03 10 1011.7
20260505215042 10 0 0.0 0.0 0.15 1.57 1.57 10 1011.7
20260505212041 10 0 0.0 0.0 0.23 1.55 1.55 10 1011.8
20260505211040 10 0 0.0 0.0 0.23 1.52 1.52 10 1011.9
20260505210034 10 0 0.0 0.0 0.28 1.52 1.50 10 1011.9
20260505202039 10 0 0.0 0.0 0.30 1.40 1.37 10 1011.7
20260505200036 10 0 0.0 0.0 0.25 1.32 1.30 10 1011.7
20260505194040 10 0 0.0 0.0 0.23 1.24 1.22 10 1011.6
20260505193037 10 0 0.0 0.0 0.18 1.19 1.17 10 1011.6
20260505185041 10 0 0.0 0.0 0.10 1.07 1.04 10 1011.5
20260505184040 10 0 0.0 0.0 0.08 1.04 1.02 10 1011.5
20260505183046 10 0 0.0 0.0 0.05 1.02 0.99 10 1011.4
20260505182044 10 0 0.0 0.0 0.05 1.02 0.99 10 1011.4
20260505181045 10 0 0.0 0.0 0.05 0.99 0.99 99 1011.5
20260505180035 10 0 0.0 0.0 0.03 0.99 0.97 99 1011.5
20260505175040 10 0 0.0 0.0 0.00 0.97 0.94 99 1011.5
20260505174042 10 0 0.0 0.0 0.00 0.97 0.94 99 1011.5
20260505172033 11 0 0.0 0.0 0.00 0.97 0.94 99 1011.5
20260505171041 10 0 0.0 0.0 0.00 0.97 0.94 99 1011.5
20260505170037 11 0 0.0 0.0 0.00 0.97 0.94 99 1011.5
20260505165041 10 0 0.0 0.0 0.00 0.97 0.94 98 1011.5
20260505164037 11 0 0.0 0.0 0.00 0.97 0.94 98 1011.5
20260505163039 11 0 0.0 0.0 0.00 0.97 0.94 98 1011.5
20260505162036 11 0 0.0 0.0 0.00 0.97 0.94 99 1011.6
20260505161041 11 0 0.0 0.0 0.00 0.97 0.94 99 1011.7
20260505153037 11 0 0.0 0.0 0.00 0.97 0.94 98 1011.7
20260505152037 11 0 0.0 0.0 0.00 0.97 0.94 98 1011.8
20260505151039 11 0 0.0 0.0 0.00 0.97 0.94 98 1011.8
20260505124038 11 0 0.0 0.0 0.00 0.97 0.94 10 1012.5
20260505122035 11 0 0.0 0.0 0.00 0.97 0.94 10 1012.6
20260505120042 11 0 0.0 0.0 0.00 0.97 0.94 10 1012.8
20260505114041 11 0 0.0 0.0 0.00 0.97 0.94 10 1012.8
20260505112040 11 0 0.0 0.0 0.00 0.97 0.94 10 1012.8
20260505102035 11 0 0.0 0.0 0.03 0.97 0.94 10 1012.9
20260505101037 11 0 0.0 0.0 0.03 0.97 0.94 10 1012.9
20260505095038 11 0 0.0 0.0 0.03 0.97 0.94 10 1013.0
20260505093029 11 0 0.0 0.0 0.03 0.94 0.91 10 1013.0
20260505091037 11 0 0.0 0.0 0.03 0.94 0.91 10 1013.0
20260505090035 11 0 0.0 0.0 0.03 0.94 0.91 10 1013.1
20260505085038 11 0 0.0 0.0 0.03 0.94 0.91 10 1013.0
20260505084024 11 0 0.0 0.0 0.03 0.94 0.91 10 1013.0
20260505083035 11 0 0.0 0.0 0.03 0.94 0.91 10 1013.1
20260505082032 11 0 0.0 0.0 0.00 0.91 0.89 10 1013.0
20260505075037 11 0 0.0 0.0 0.00 0.91 0.89 10 1013.0
20260505074041 11 0 0.0 0.0 0.00 0.91 0.89 10 1013.0
20260505073038 11 0 0.0 0.0 0.00 0.91 0.89 10 1013.0
20260505072042 11 0 0.0 0.0 0.00 0.91 0.89 10 1013.0
20260505071041 11 0 0.0 0.0 0.00 0.91 0.89 10 1013.0
20260505070036 11 0 0.0 0.0 0.00 0.91 0.89 10 1013.0
20260505065035 11 0 0.0 0.0 0.00 0.91 0.89 10 1013.1
20260505062036 11 0 0.0 0.0 0.05 0.91 0.89 10 1013.1
20260505061026 12 0 0.0 0.0 0.08 0.91 0.89 10 1013.1
20260505060024 12 0 0.0 0.0 0.13 0.91 0.89 10 1013.1
20260505055026 12 0 0.0 0.0 0.18 0.91 0.89 10 1013.1
20260505053025 12 0 0.0 0.0 0.20 0.91 0.89 10 1013.1
20260505052033 12 0 0.0 0.0 0.15 0.89 0.86 10 1013.0
20260505051040 12 0 0.0 0.0 0.15 0.86 0.84 10 1013.0
20260505035040 12 0 0.0 0.0 0.33 0.71 0.71 10 1013.0
20260505034039 12 0 0.0 0.0 0.38 0.71 0.69 10 1013.0
20260505033041 12 0 0.0 0.0 0.46 0.69 0.66 10 1013.0
20260505031034 12 0 0.0 0.0 0.61 0.66 0.64 10 1013.2
20260505030038 12 0 0.0 0.0 0.56 0.61 0.58 10 1013.2
20260505025041 12 0 0.0 0.0 0.48 0.51 0.48 10 1013.3
20260505024038 12 0 0.0 0.0 0.36 0.38 0.36 10 1013.3
20260505023041 12 0 0.0 0.0 0.30 0.33 0.30 10 1013.4
20260505022027 12 0 0.0 0.0 0.20 0.23 0.20 10 1013.4
20260505021037 12 0 0.0 0.0 0.10 0.13 0.10 10 1013.4
20260505020027 12 0 0.0 0.0 0.05 0.05 0.05 10 1013.4
20260505014038 12 0 0.0 0.0 0.00 0.03 0.00 10 1013.4
20260505011045 12 0 0.0 0.0 0.00 0.03 0.00 10 1013.6
20260505010032 12 0 0.0 0.0 0.00 0.03 0.00 10 1013.8
20260505004038 12 0 0.0 0.0 0.00 0.03 0.00 10 1013.9
20260505003035 12 0 0.0 0.0 0.00 0.03 0.00 10 1013.9
20260505001039 12 0 0.0 0.0 0.00 0.05 0.00 10 1014.1
20260504234041 12 0 0.0 0.0 0.00 0.05 0.00 10 1014.2
20260504233037 12 0 0.0 0.0 0.00 0.05 0.00 10 1014.3
20260504232035 12 0 0.0 0.0 0.00 0.05 0.00 10 1014.2
20260504231037 12 0 0.0 0.0 0.00 0.05 0.00 10 1014.3
20260504225047 12 0 0.0 0.0 0.00 0.05 0.00 10 1014.6